| time (UTC) | temp F | wind direction | speed MPH | gust MPH | rain 1hr in | rain 24hr in | rain mn in | humidity % | barometer mb |
| 20260506200035 | 52 | 192 | 0.0 | 2.0 | 0.05 | 0.10 | 0.10 | 93 | 1007.0 |
| 20260506194534 | 52 | 194 | 0.0 | 1.0 | 0.05 | 0.09 | 0.09 | 93 | 1006.9 |
| 20260506193031 | 53 | 198 | 0.0 | 2.0 | 0.05 | 0.08 | 0.08 | 93 | 1006.6 |
| 20260506191528 | 53 | 195 | 0.0 | 0.0 | 0.04 | 0.06 | 0.06 | 92 | 1006.3 |
| 20260506190026 | 53 | 195 | 0.0 | 0.0 | 0.04 | 0.06 | 0.06 | 92 | 1006.1 |
| 20260506184524 | 54 | 216 | 0.0 | 0.0 | 0.02 | 0.06 | 0.04 | 92 | 1005.8 |
| 20260506183023 | 54 | 223 | 0.0 | 0.0 | 0.02 | 0.06 | 0.03 | 92 | 1005.6 |
| 20260506181527 | 54 | 223 | 0.0 | 0.0 | 0.01 | 0.05 | 0.02 | 92 | 1005.5 |
| 20260506180023 | 54 | 246 | 0.0 | 0.0 | 0.01 | 0.04 | 0.02 | 91 | 1005.5 |
| 20260506174521 | 54 | 254 | 0.0 | 0.0 | 0.01 | 0.06 | 0.02 | 91 | 1005.2 |
| 20260506173022 | 54 | 254 | 0.0 | 0.0 | 0.01 | 0.06 | 0.02 | 91 | 1005.3 |
| 20260506171534 | 54 | 254 | 0.0 | 0.0 | 0.01 | 0.06 | 0.02 | 90 | 1005.1 |
| 20260506170022 | 54 | 254 | 0.0 | 5.0 | 0.00 | 0.05 | 0.01 | 89 | 1005.1 |
| 20260506164521 | 55 | 273 | 0.0 | 4.0 | 0.00 | 0.05 | 0.01 | 88 | 1005.1 |
| 20260506163019 | 55 | 265 | 0.0 | 6.0 | 0.00 | 0.05 | 0.01 | 88 | 1005.1 |
| 20260506161522 | 55 | 250 | 1.0 | 8.0 | 0.00 | 0.05 | 0.01 | 87 | 1005.1 |
| 20260506160031 | 56 | 246 | 0.0 | 3.0 | 0.00 | 0.05 | 0.01 | 86 | 1004.9 |
| 20260506154517 | 55 | 292 | 0.0 | 0.0 | 0.00 | 0.06 | 0.01 | 86 | 1004.7 |
| 20260506153016 | 55 | 287 | 0.0 | 0.0 | 0.00 | 0.06 | 0.01 | 87 | 1004.8 |
| 20260506151527 | 56 | 269 | 0.0 | 8.0 | 0.00 | 0.06 | 0.01 | 88 | 1004.7 |
| 20260506150026 | 56 | 259 | 0.0 | 7.0 | 0.00 | 0.06 | 0.01 | 87 | 1004.6 |
| 20260506144514 | 56 | 291 | 2.0 | 23.0 | 0.00 | 0.11 | 0.01 | 84 | 1004.4 |
| 20260506143034 | 57 | 292 | 2.0 | 27.0 | 0.00 | 0.11 | 0.01 | 80 | 1004.2 |
| 20260506141513 | 62 | 267 | 3.0 | 11.0 | 0.00 | 0.11 | 0.01 | 72 | 1003.8 |
| 20260506140014 | 63 | 277 | 1.0 | 13.0 | 0.00 | 0.11 | 0.01 | 70 | 1003.6 |
| 20260506134511 | 63 | 273 | 2.0 | 10.0 | 0.00 | 0.19 | 0.01 | 68 | 1003.5 |
| 20260506133012 | 64 | 252 | 1.0 | 7.0 | 0.00 | 0.19 | 0.01 | 61 | 1003.4 |
| 20260506131515 | 64 | 246 | 0.0 | 0.0 | 0.00 | 0.19 | 0.01 | 62 | 1003.3 |
| 20260506130010 | 65 | 237 | 0.0 | 0.0 | 0.00 | 0.19 | 0.01 | 59 | 1003.2 |
| 20260506124507 | 64 | 173 | 0.0 | 0.0 | 0.00 | 0.19 | 0.01 | 60 | 1003.1 |
| 20260506123006 | 67 | 207 | 0.0 | 0.0 | 0.00 | 0.19 | 0.01 | 58 | 1003.2 |
| 20260506121505 | 65 | 208 | 0.0 | 0.0 | 0.00 | 0.19 | 0.01 | 61 | 1003.4 |
| 20260506114558 | 64 | 165 | 0.0 | 3.0 | 0.00 | 0.19 | 0.01 | 67 | 1003.5 |
| 20260506113106 | 63 | 152 | 0.0 | 1.0 | 0.00 | 0.19 | 0.01 | 69 | 1003.6 |
| 20260506111555 | 63 | 132 | 0.0 | 0.0 | 0.00 | 0.19 | 0.01 | 67 | 1003.6 |
| 20260506104613 | 63 | 275 | 0.0 | 4.0 | 0.00 | 0.19 | 0.01 | 67 | 1003.8 |
| 20260506103053 | 63 | 317 | 0.0 | 5.0 | 0.00 | 0.19 | 0.01 | 70 | 1004.0 |
| 20260506101559 | 64 | 315 | 3.0 | 11.0 | 0.00 | 0.19 | 0.01 | 67 | 1004.0 |
| 20260506100049 | 64 | 85 | 0.0 | 4.0 | 0.00 | 0.19 | 0.01 | 70 | 1004.0 |
| 20260506094519 | 64 | 152 | 0.0 | 2.0 | 0.00 | 0.19 | 0.01 | 70 | 1004.2 |
| 20260506093018 | 64 | 133 | 0.0 | 9.0 | 0.00 | 0.19 | 0.01 | 67 | 1004.2 |
| 20260506091521 | 62 | 98 | 0.0 | 4.0 | 0.00 | 0.19 | 0.01 | 71 | 1004.1 |
| 20260506090016 | 62 | 360 | 0.0 | 2.0 | 0.00 | 0.19 | 0.01 | 71 | 1004.1 |
| 20260506084519 | 63 | 281 | 0.0 | 8.0 | 0.00 | 0.19 | 0.01 | 66 | 1004.3 |
| 20260506083013 | 63 | 317 | 0.0 | 0.0 | 0.00 | 0.19 | 0.01 | 74 | 1004.3 |
| 20260506081511 | 61 | 302 | 0.0 | 7.0 | 0.00 | 0.19 | 0.01 | 73 | 1004.3 |
| 20260506073005 | 60 | 180 | 0.0 | 0.0 | 0.00 | 0.19 | 0.01 | 77 | 1004.5 |
| 20260506071500 | 58 | 225 | 0.0 | 0.0 | 0.00 | 0.19 | 0.01 | 80 | 1004.3 |
| 20260506070103 | 57 | 130 | 0.0 | 0.0 | 0.00 | 0.19 | 0.01 | 82 | 1004.2 |
| 20260506061548 | 54 | 198 | 0.0 | 0.0 | 0.00 | 0.19 | 0.01 | 94 | 1004.6 |
| 20260506044535 | 49 | 198 | 0.0 | 0.0 | 0.00 | 0.19 | 0.01 | 96 | 1004.6 |
| 20260506043034 | 49 | 198 | 0.0 | 0.0 | 0.00 | 0.19 | 0.01 | 96 | 1004.7 |
| 20260506041544 | 48 | 198 | 0.0 | 0.0 | 0.00 | 0.19 | 0.01 | 96 | 1004.8 |
| 20260506040031 | 47 | 198 | 0.0 | 0.0 | 0.00 | 0.19 | 0.01 | 96 | 1004.8 |
| 20260506034530 | 48 | 224 | 0.0 | 0.0 | 0.00 | 0.19 | 0.01 | 96 | 1004.9 |
| 20260506033031 | 48 | 224 | 0.0 | 0.0 | 0.00 | 0.19 | 0.01 | 96 | 1004.8 |
| 20260506031528 | 48 | 224 | 0.0 | 0.0 | 0.00 | 0.19 | 0.01 | 96 | 1004.8 |
| 20260506030031 | 49 | 224 | 0.0 | 0.0 | 0.00 | 0.19 | 0.01 | 96 | 1004.7 |
| 20260506024524 | 49 | 221 | 0.0 | 0.0 | 0.00 | 0.19 | 0.01 | 96 | 1004.8 |
| 20260506023021 | 49 | 221 | 0.0 | 0.0 | 0.00 | 0.19 | 0.01 | 96 | 1005.4 |
| 20260506021521 | 49 | 221 | 0.0 | 0.0 | 0.00 | 0.19 | 0.01 | 96 | 1005.4 |
| 20260506020023 | 49 | 221 | 0.0 | 0.0 | 0.00 | 0.19 | 0.01 | 96 | 1005.4 |
| 20260506014519 | 49 | 221 | 0.0 | 0.0 | 0.00 | 0.19 | 0.01 | 95 | 1005.4 |
| 20260506013025 | 49 | 221 | 0.0 | 0.0 | 0.00 | 0.19 | 0.01 | 95 | 1005.3 |
| 20260506011514 | 50 | 221 | 0.0 | 0.0 | 0.00 | 0.19 | 0.01 | 95 | 1005.3 |
| 20260506010017 | 51 | 221 | 0.0 | 0.0 | 0.00 | 0.19 | 0.01 | 96 | 1005.3 |
| 20260506004518 | 51 | 184 | 0.0 | 0.0 | 0.00 | 0.19 | 0.01 | 96 | 1005.4 |
| 20260506003010 | 51 | 184 | 0.0 | 0.0 | 0.00 | 0.19 | 0.01 | 95 | 1005.6 |
| 20260506001508 | 51 | 184 | 0.0 | 0.0 | 0.00 | 0.19 | 0.01 | 95 | 1005.7 |
| 20260506000015 | 51 | 184 | 0.0 | 0.0 | 0.00 | 0.19 | 0.01 | 95 | 1005.9 |
| 20260505234513 | 52 | 184 | 0.0 | 0.0 | 0.01 | 0.19 | 0.01 | 96 | 1006.0 |
| 20260505233004 | 52 | 184 | 0.0 | 0.0 | 0.01 | 0.19 | 0.01 | 96 | 1006.0 |
| 20260505231502 | 52 | 184 | 0.0 | 0.0 | 0.01 | 0.19 | 0.01 | 95 | 1006.0 |
| 20260505230118 | 52 | 184 | 0.0 | 0.0 | 0.01 | 0.19 | 0.01 | 95 | 1006.0 |
| 20260505224551 | 52 | 184 | 0.0 | 0.0 | 0.00 | 0.18 | 0.00 | 95 | 1006.0 |
| 20260505223056 | 53 | 184 | 0.0 | 0.0 | 0.00 | 0.18 | 0.00 | 95 | 1005.9 |
| 20260505221551 | 53 | 184 | 0.0 | 0.0 | 0.00 | 0.18 | 0.00 | 95 | 1005.8 |
| 20260505220047 | 54 | 184 | 0.0 | 0.0 | 0.00 | 0.18 | 0.00 | 95 | 1005.9 |
| 20260505214558 | 54 | 184 | 0.0 | 0.0 | 0.00 | 0.18 | 0.18 | 95 | 1006.1 |
| 20260505213054 | 54 | 184 | 0.0 | 0.0 | 0.00 | 0.18 | 0.18 | 94 | 1006.2 |
| 20260505211543 | 54 | 184 | 0.0 | 0.0 | 0.00 | 0.18 | 0.18 | 95 | 1006.1 |
| 20260505210041 | 54 | 184 | 0.0 | 0.0 | 0.00 | 0.18 | 0.18 | 95 | 1006.0 |
| 20260505204540 | 54 | 178 | 0.0 | 0.0 | 0.00 | 0.18 | 0.18 | 95 | 1005.9 |
| 20260505203045 | 54 | 138 | 0.0 | 0.0 | 0.00 | 0.18 | 0.18 | 95 | 1005.8 |
| 20260505201549 | 55 | 138 | 0.0 | 0.0 | 0.00 | 0.18 | 0.18 | 95 | 1005.6 |